TimeEST,TemperatureF,Dew PointF,Humidity,Sea Level PressureIn,VisibilityMPH,Wind Direction,Wind SpeedMPH,Gust SpeedMPH,PrecipitationIn,Events,Conditions,WindDirDegrees,DateUTC
12:15 AM,32.0,31.6,99,30.11,2.0,Calm,Calm,-,N/A,,Unknown,0,2013-01-30 05:15:00
12:35 AM,32.0,31.6,99,30.10,2.0,Calm,Calm,-,0.01,,Unknown,0,2013-01-30 05:35:00
1:15 AM,32.0,32.0,100,30.08,4.0,Calm,Calm,-,N/A,,Mist,0,2013-01-30 06:15:00
1:35 AM,32.0,31.8,99,30.07,7.0,Calm,Calm,-,N/A,,Unknown,0,2013-01-30 06:35:00
2:15 AM,32.0,32.0,100,30.07,5.0,Calm,Calm,-,0.02,,Unknown,0,2013-01-30 07:15:00
2:35 AM,32.2,32.0,99,30.05,7.0,ENE,3.5,-,0.03,,Unknown,60,2013-01-30 07:35:00
2:55 AM,32.4,32.0,99,30.04,4.0,ENE,4.6,-,0.05,Snow,Light Snow,70,2013-01-30 07:55:00
3:15 AM,32.4,32.0,99,30.03,5.0,Calm,Calm,-,0.02,Snow,Light Snow,0,2013-01-30 08:15:00
3:35 AM,32.4,32.0,99,30.02,10.0,Calm,Calm,-,0.02,,Unknown,0,2013-01-30 08:35:00
3:55 AM,32.4,32.0,99,30.01,10.0,Calm,Calm,-,0.02,,Unknown,0,2013-01-30 08:55:00
4:15 AM,32.4,32.0,99,30.00,7.0,Calm,Calm,-,N/A,,Unknown,0,2013-01-30 09:15:00
4:35 AM,32.2,32.0,99,29.99,7.0,East,3.5,-,N/A,,Unknown,80,2013-01-30 09:35:00
4:55 AM,32.4,32.0,99,29.99,7.0,Calm,Calm,-,N/A,,Unknown,0,2013-01-30 09:55:00
5:15 AM,32.5,32.2,99,29.99,3.0,Calm,Calm,-,N/A,,Mist,0,2013-01-30 10:15:00
5:35 AM,32.4,32.2,99,29.97,2.0,Calm,Calm,-,N/A,,Mist,0,2013-01-30 10:35:00
5:55 AM,32.5,32.4,99,29.96,2.0,Calm,Calm,-,N/A,,Mist,0,2013-01-30 10:55:00
6:15 AM,32.4,32.2,99,29.95,1.8,Calm,Calm,-,N/A,,Mist,0,2013-01-30 11:15:00
6:35 AM,32.5,32.4,99,29.94,2.0,Calm,Calm,-,N/A,,Mist,0,2013-01-30 11:35:00
6:55 AM,32.5,32.5,100,29.94,1.8,Calm,Calm,-,N/A,,Mist,0,2013-01-30 11:55:00
7:15 AM,32.5,32.5,100,29.93,1.5,Calm,Calm,-,N/A,,Mist,0,2013-01-30 12:15:00
7:35 AM,32.5,32.5,100,29.92,1.0,Calm,Calm,-,N/A,,Mist,0,2013-01-30 12:35:00
7:55 AM,32.4,32.4,100,29.92,1.0,Calm,Calm,-,N/A,,Mist,0,2013-01-30 12:55:00
8:15 AM,32.4,32.4,100,29.91,1.0,Calm,Calm,-,N/A,,Mist,0,2013-01-30 13:15:00
8:35 AM,32.4,32.4,100,29.90,0.5,Calm,Calm,-,N/A,Fog,Fog,0,2013-01-30 13:35:00
8:55 AM,32.4,32.4,100,29.89,0.5,Calm,Calm,-,N/A,Fog,Fog,0,2013-01-30 13:55:00
9:15 AM,32.4,32.4,100,29.87,0.5,Calm,Calm,-,N/A,Fog,Fog,0,2013-01-30 14:15:00
9:35 AM,32.4,32.4,100,29.85,0.5,Calm,Calm,-,N/A,Fog,Fog,0,2013-01-30 14:35:00
9:55 AM,32.5,32.5,100,29.83,0.8,Calm,Calm,-,N/A,,Mist,0,2013-01-30 14:55:00
10:15 AM,32.5,32.5,100,29.82,0.8,Calm,Calm,-,N/A,,Mist,0,2013-01-30 15:15:00
10:35 AM,32.5,32.5,100,29.81,0.8,Calm,Calm,-,N/A,,Mist,0,2013-01-30 15:35:00
10:55 AM,32.9,32.9,100,29.80,1.2,Calm,Calm,-,N/A,,Mist,0,2013-01-30 15:55:00
11:15 AM,32.9,32.9,100,29.79,0.5,Calm,Calm,-,N/A,Fog,Fog,0,2013-01-30 16:15:00
11:35 AM,33.1,33.1,100,29.76,1.0,Calm,Calm,-,N/A,,Mist,0,2013-01-30 16:35:00
11:55 AM,33.3,33.3,100,29.75,1.2,Calm,Calm,-,N/A,,Mist,0,2013-01-30 16:55:00
12:15 PM,33.6,33.6,100,29.73,1.0,SE,3.5,-,N/A,,Mist,140,2013-01-30 17:15:00
12:35 PM,33.8,33.8,100,29.71,1.8,East,3.5,-,N/A,,Mist,100,2013-01-30 17:35:00
12:55 PM,34.0,34.0,100,29.70,1.0,Calm,Calm,-,N/A,,Mist,0,2013-01-30 17:55:00
1:15 PM,34.0,34.0,100,29.67,1.0,Calm,Calm,-,N/A,,Mist,0,2013-01-30 18:15:00
1:35 PM,34.2,34.2,100,29.65,1.2,ESE,3.5,-,N/A,,Mist,120,2013-01-30 18:35:00
1:55 PM,34.3,34.3,100,29.64,1.2,Calm,Calm,-,N/A,,Mist,0,2013-01-30 18:55:00
2:15 PM,34.2,34.2,100,29.63,1.2,Calm,Calm,-,N/A,,Mist,0,2013-01-30 19:15:00
2:35 PM,34.2,34.2,100,29.61,1.0,Calm,Calm,-,N/A,,Mist,0,2013-01-30 19:35:00
2:55 PM,34.2,34.2,100,29.60,1.0,SSE,3.5,-,N/A,,Mist,150,2013-01-30 19:55:00
3:15 PM,34.7,34.7,100,29.60,0.8,Calm,Calm,-,N/A,,Mist,0,2013-01-30 20:15:00
3:35 PM,34.5,34.5,100,29.59,0.8,Calm,Calm,-,N/A,Rain,Light Rain,0,2013-01-30 20:35:00
3:55 PM,34.2,34.2,100,29.59,0.8,ENE,3.5,-,0.02,Rain,Light Rain,60,2013-01-30 20:55:00
4:15 PM,34.2,34.2,100,29.58,0.8,Calm,Calm,-,N/A,,Light Drizzle,0,2013-01-30 21:15:00
4:35 PM,34.2,34.2,100,29.57,0.5,Calm,Calm,-,N/A,,Light Drizzle,0,2013-01-30 21:35:00
4:55 PM,33.8,33.8,100,29.57,0.5,Calm,Calm,-,N/A,Fog,Fog,0,2013-01-30 21:55:00
5:15 PM,33.6,33.6,100,29.57,1.2,Calm,Calm,-,N/A,,Mist,0,2013-01-30 22:15:00
5:35 PM,33.8,33.8,100,29.57,1.2,Calm,Calm,-,N/A,,Mist,0,2013-01-30 22:35:00
5:55 PM,33.6,33.6,100,29.55,1.2,Calm,Calm,-,N/A,,Mist,0,2013-01-30 22:55:00
6:15 PM,33.4,33.4,100,29.55,1.2,Calm,Calm,-,N/A,,Mist,0,2013-01-30 23:15:00
6:35 PM,33.8,33.8,100,29.55,2.0,Calm,Calm,-,N/A,Rain,Light Rain,0,2013-01-30 23:35:00
6:55 PM,33.8,33.8,100,29.54,1.8,Calm,Calm,-,0.01,Rain,Rain,0,2013-01-30 23:55:00
7:15 PM,33.8,33.8,100,29.53,2.0,Calm,Calm,-,N/A,,Mist,0,2013-01-31 00:15:00
7:35 PM,34.0,34.0,100,29.53,3.0,Calm,Calm,-,N/A,,Mist,0,2013-01-31 00:35:00
7:55 PM,33.6,33.6,100,29.52,1.5,Calm,Calm,-,N/A,,Light Drizzle,0,2013-01-31 00:55:00
8:15 PM,33.8,33.8,100,29.50,1.5,Calm,Calm,-,N/A,Rain,Light Rain,0,2013-01-31 01:15:00
8:35 PM,33.8,33.8,100,29.49,1.8,Calm,Calm,-,N/A,,Mist,0,2013-01-31 01:35:00
8:55 PM,33.4,33.4,100,29.49,1.8,Calm,Calm,-,N/A,,Mist,0,2013-01-31 01:55:00
9:15 PM,33.8,33.8,100,29.49,1.2,Calm,Calm,-,N/A,,Mist,0,2013-01-31 02:15:00
9:35 PM,33.6,33.6,100,29.47,1.0,Calm,Calm,-,N/A,,Mist,0,2013-01-31 02:35:00
9:55 PM,33.8,33.8,100,29.47,1.5,Calm,Calm,-,N/A,,Mist,0,2013-01-31 02:55:00
10:15 PM,33.8,33.8,100,29.47,2.0,Calm,Calm,-,N/A,,Mist,0,2013-01-31 03:15:00
10:35 PM,33.8,33.8,100,29.45,1.0,Calm,Calm,-,N/A,,Light Drizzle,0,2013-01-31 03:35:00
10:55 PM,34.2,34.2,100,29.44,3.0,Calm,Calm,-,N/A,,Mist,0,2013-01-31 03:55:00
11:15 PM,33.8,33.8,100,29.43,1.5,Calm,Calm,-,N/A,,Mist,0,2013-01-31 04:15:00
11:35 PM,33.8,33.8,100,29.43,0.8,Calm,Calm,-,N/A,Rain,Light Rain,0,2013-01-31 04:35:00